Weather History for Deadhorse, AK

Change the Weather History Date:

Tuesday, February 12, 2013

  Actual Average Record
Temperature  
Mean Temperature -23 °F -  
Max Temperature -15 °F -8 °F 32 °F (1989)
Min Temperature -29 °F -19 °F -38 °F (1988)
Degree Days  
Heating Degree Days 88    
Moisture  
Dew Point -29 °F    
Average Humidity 75    
Maximum Humidity 82    
Minimum Humidity 69    
Precipitation  
Precipitation 0.00 in - - ()
Sea Level Pressure  
Sea Level Pressure 29.90 in    
Wind  
Wind Speed 3 mph (ENE)    
Max Wind Speed 9 mph    
Max Gust Speed -    
Visibility 8 miles    
Events      
Averages and records for this station are not official NWS values.
T = Trace of Precipitation, MM = Missing Value Source: NWS Daily Summary

Daily Weather History Graph

Daily Weather History Graph

Search for Another Location

Airport:

Trip Planner

Search our weather history database for the weather conditions in past years. The results will help you decide how hot, cold, wet, or windy it might be!

Date:

Astronomy

Feb. 12, 2013 Rise Set
Actual Time 9:41 AM AKST 4:36 PM AKST
Civil Twilight 8:29 AM AKST 5:48 PM AKST
Nautical Twilight 7:16 AM AKST 7:01 PM AKST
Astronomical Twilight 6:05 AM AKST 8:13 PM AKST
Moon 8:37 AM AKST (2/12) 10:15 PM AKST (2/12)
Length of Visible Light 9h 18m
Length of Day
6h 55m
Waxing Crescent, 8% of the Moon is Illuminated
Feb 12
Waxing Crescent
Feb 17
First Quarter
Feb 25
Full
Mar 4
Last Quarter
Mar 11
New

Hourly Weather History & Observations

Time (AKST) Temp. Windchill Dew Point Humidity Pressure Visibility Wind Dir Wind Speed Gust Speed Precip Events Conditions
12:53 AM -18.9 °F - -25.1 °F 74% 29.85 in 10.0 mi Calm Calm - N/A   Scattered Clouds
1:53 AM -20.0 °F - -26.0 °F 74% 29.86 in 10.0 mi Calm Calm - N/A   Mostly Cloudy
2:53 AM -18.9 °F -29.5 °F -25.1 °F 74% 29.86 in 10.0 mi NE 3.5 mph - N/A   Scattered Clouds
3:53 AM -22.0 °F -33.0 °F -27.0 °F 77% 29.86 in 10.0 mi NNE 3.5 mph - N/A   Clear
4:53 AM -25.1 °F -36.5 °F -29.9 °F 78% 29.86 in 10.0 mi SE 3.5 mph - N/A   Clear
5:53 AM -23.1 °F - -27.0 °F 82% 29.87 in 10.0 mi Calm Calm - N/A   Partly Cloudy
6:53 AM -25.1 °F - -32.1 °F 70% 29.87 in 10.0 mi Calm Calm - N/A   Clear
7:53 AM -24.0 °F - -29.9 °F 74% 29.88 in 10.0 mi Calm Calm - N/A   Clear
8:53 AM -26.0 °F -37.5 °F -29.9 °F 81% 29.88 in 10.0 mi East 3.5 mph - N/A   Clear
9:53 AM -29.0 °F -41.0 °F -34.1 °F 77% 29.88 in 10.0 mi East 3.5 mph - N/A   Clear
10:53 AM -27.9 °F - -34.1 °F 73% 29.89 in 10.0 mi Calm Calm - N/A   Overcast
11:53 AM -27.9 °F -39.8 °F -33.0 °F 77% 29.89 in 10.0 mi East 3.5 mph - N/A   Mostly Cloudy
12:53 PM -25.1 °F -39.1 °F -29.9 °F 78% 29.90 in 7.0 mi ESE 4.6 mph - N/A   Overcast
1:53 PM -22.0 °F - -29.0 °F 70% 29.91 in 7.0 mi Calm Calm - N/A   Scattered Clouds
2:53 PM -23.1 °F -40.7 °F -29.0 °F 74% 29.91 in 6.0 mi NE 6.9 mph - N/A   Scattered Clouds
2:55 PM -22.0 °F -37.7 °F -29.2 °F 69% 29.90 in 1.2 mi NE 5.8 mph - N/A   Partly Cloudy
3:02 PM -23.8 °F -39.8 °F -29.2 °F 76% 29.90 in 6.0 mi ENE 5.8 mph - N/A   Scattered Clouds
3:53 PM -24.0 °F -40.0 °F -29.9 °F 74% 29.92 in 6.0 mi ENE 5.8 mph - N/A   Partly Cloudy
4:53 PM -25.1 °F -43.1 °F -31.0 °F 74% 29.93 in 7.0 mi ENE 6.9 mph - N/A   Partly Cloudy
5:53 PM -25.1 °F -41.3 °F -31.0 °F 74% 29.93 in 10.0 mi East 5.8 mph - N/A   Mostly Cloudy
6:08 PM -25.6 °F -45.4 °F -31.0 °F 76% 29.92 in 10.0 mi ENE 8.1 mph - N/A   Mostly Cloudy
6:25 PM -23.8 °F -44.5 °F -29.2 °F 76% 29.92 in 2.5 mi ENE 9.2 mph - N/A   Overcast
6:33 PM -23.8 °F -44.5 °F -29.2 °F 76% 29.92 in 10.0 mi ENE 9.2 mph - N/A   Overcast
6:53 PM -24.0 °F -40.0 °F -29.9 °F 74% 29.93 in 10.0 mi East 5.8 mph - N/A   Overcast
7:53 PM -20.9 °F -36.4 °F -27.0 °F 73% 29.94 in 5.0 mi East 5.8 mph - N/A   Overcast
8:53 PM -20.0 °F -30.7 °F -26.0 °F 74% 29.95 in 10.0 mi ENE 3.5 mph - N/A   Overcast
9:53 PM -18.9 °F -32.0 °F -25.1 °F 74% 29.95 in 10.0 mi NE 4.6 mph - N/A   Overcast
10:53 PM -17.0 °F -29.7 °F -23.1 °F 74% 29.95 in 10.0 mi ENE 4.6 mph - N/A   Overcast
11:53 PM -15.0 °F -25.0 °F -20.9 °F 75% 29.96 in 10.0 mi ENE 3.5 mph - N/A   Overcast